TUI4321 EICK-EDDH

Flight info

Callsign TUI4321
Flight time N/A
Altitude 35000
Route VAPAL1S VAPAL DCT BANBA DCT DIQSE DCT ICOSA DCT RUHUN DCT UNZIB DCT NUCHU Q295 ICTAM M197 BRAIN Q295 SOMVA DCT MAVAS DCT ANDIK M105 RIBSO RIBSO3P
Aircraft B738/M-SDGIJ1LRWY/SB1

Departure

Time N/A
Airport Cork International Airport (EICK)

Arrival

Time 2026-04-23 19:53
Airport Hamburg Helmut Schmidt Airport (EDDH)
Time Latitude Longitude Altitude Speed Heading
2026-04-23 18:30 51.49710 -2.06739 35365 ft 461 kts 94°
2026-04-23 18:30 51.49353 -2.01686 35365 ft 460 kts 94°
2026-04-23 18:31 51.48626 -1.91479 35366 ft 460 kts 94°
2026-04-23 18:31 51.47895 -1.81351 35366 ft 460 kts 94°
2026-04-23 18:32 51.47273 -1.71163 35366 ft 458 kts 90°
2026-04-23 18:32 51.47716 -1.61087 35367 ft 452 kts 78°
2026-04-23 18:33 51.48872 -1.51199 35366 ft 453 kts 78°
2026-04-23 18:33 51.49954 -1.41248 35373 ft 453 kts 78°
2026-04-23 18:34 51.51056 -1.31328 35372 ft 454 kts 79°
2026-04-23 18:34 51.52163 -1.21341 35372 ft 454 kts 79°
2026-04-23 18:35 51.53370 -1.11456 35372 ft 452 kts 75°
2026-04-23 18:35 51.55019 -1.01743 35372 ft 451 kts 75°
2026-04-23 18:36 51.56585 -0.92078 35372 ft 450 kts 75°
2026-04-23 18:36 51.58143 -0.82354 35372 ft 451 kts 76°
2026-04-23 18:37 51.59697 -0.72579 35373 ft 451 kts 76°
2026-04-23 18:37 51.61234 -0.62836 35372 ft 449 kts 77°
2026-04-23 18:38 51.62758 -0.53109 35372 ft 450 kts 77°
2026-04-23 18:38 51.64276 -0.43347 35372 ft 451 kts 77°
2026-04-23 18:39 51.65792 -0.33550 35372 ft 451 kts 78°
2026-04-23 18:39 51.67292 -0.23791 35374 ft 450 kts 78°
2026-04-23 18:40 51.68914 -0.14077 35399 ft 449 kts 77°
2026-04-23 18:40 51.70482 -0.04334 35399 ft 450 kts 79°
2026-04-23 18:41 51.71988 0.05409 35399 ft 450 kts 78°
2026-04-23 18:41 51.73505 0.15178 35399 ft 450 kts 79°
2026-04-23 18:42 51.75008 0.24943 35399 ft 450 kts 79°
2026-04-23 18:42 51.76511 0.34750 35399 ft 448 kts 79°
2026-04-23 18:43 51.77984 0.44437 35399 ft 447 kts 79°
2026-04-23 18:43 51.79460 0.54191 35399 ft 448 kts 79°
2026-04-23 18:44 51.81014 0.63939 35424 ft 450 kts 75°
2026-04-23 18:44 51.83321 0.73322 35426 ft 453 kts 71°
2026-04-23 18:45 51.85736 0.82758 35426 ft 453 kts 72°
2026-04-23 18:45 51.88122 0.92148 35426 ft 454 kts 71°
2026-04-23 18:46 51.90521 1.01542 35426 ft 454 kts 71°
2026-04-23 18:46 51.92923 1.10974 35426 ft 454 kts 71°
2026-04-23 18:47 51.95322 1.20419 35426 ft 454 kts 71°
2026-04-23 18:47 51.97705 1.29830 35425 ft 452 kts 71°
2026-04-23 18:48 52.00071 1.39208 35426 ft 449 kts 71°
2026-04-23 18:48 52.02420 1.48560 35426 ft 450 kts 71°
2026-04-23 18:49 52.04770 1.57953 35426 ft 451 kts 71°
2026-04-23 18:49 52.07124 1.67402 35426 ft 451 kts 72°
2026-04-23 18:50 52.09066 1.75223 35426 ft 450 kts 72°
2026-04-23 18:50 52.11803 1.86299 35426 ft 453 kts 72°
2026-04-23 18:51 52.14138 1.95786 35426 ft 453 kts 72°
2026-04-23 18:51 52.16460 2.05266 35426 ft 452 kts 72°
2026-04-23 18:52 52.18767 2.14721 35453 ft 452 kts 72°
2026-04-23 18:52 52.21090 2.24286 35426 ft 453 kts 72°
2026-04-23 18:53 52.23310 2.33842 35427 ft 453 kts 75°
2026-04-23 18:53 52.25344 2.43488 35425 ft 452 kts 74°
2026-04-23 18:54 52.27437 2.53224 35426 ft 454 kts 74°
2026-04-23 18:54 52.29503 2.62896 35426 ft 452 kts 74°
2026-04-23 18:55 52.31566 2.72577 35426 ft 451 kts 75°
2026-04-23 18:55 52.33616 2.82238 35426 ft 450 kts 75°
2026-04-23 18:56 52.35650 2.91864 35426 ft 452 kts 75°
2026-04-23 18:56 52.37702 3.01612 35426 ft 453 kts 75°
2026-04-23 18:57 52.39736 3.11322 35426 ft 454 kts 75°
2026-04-23 18:57 52.41775 3.21101 35426 ft 453 kts 75°
2026-04-23 18:58 52.43785 3.30786 35426 ft 452 kts 75°
2026-04-23 18:58 52.45793 3.40508 35426 ft 451 kts 75°
2026-04-23 18:59 52.47792 3.50235 35426 ft 451 kts 75°
2026-04-23 18:59 52.49779 3.59953 35426 ft 451 kts 75°
2026-04-23 19:00 52.51771 3.69741 35426 ft 451 kts 76°
2026-04-23 19:00 52.53739 3.79464 35427 ft 450 kts 75°
2026-04-23 19:01 52.55692 3.89156 35426 ft 446 kts 75°
2026-04-23 19:01 52.57616 3.98746 35426 ft 445 kts 75°
2026-04-23 19:02 52.59543 4.08404 35407 ft 445 kts 75°
2026-04-23 19:02 52.61464 4.18080 35399 ft 445 kts 75°
2026-04-23 19:03 52.63364 4.27701 35400 ft 444 kts 75°
2026-04-23 19:03 52.65263 4.37359 35399 ft 444 kts 75°
2026-04-23 19:04 52.67156 4.47038 35399 ft 445 kts 75°
2026-04-23 19:04 52.69040 4.56715 35399 ft 445 kts 75°
2026-04-23 19:05 52.70917 4.66409 35399 ft 445 kts 76°
2026-04-23 19:05 52.72790 4.76130 35399 ft 444 kts 75°
2026-04-23 19:06 52.74633 4.85738 35399 ft 443 kts 75°
2026-04-23 19:06 52.76492 4.95493 35400 ft 446 kts 76°
2026-04-23 19:07 52.78338 5.05228 35399 ft 448 kts 75°
2026-04-23 19:07 52.80181 5.14991 35399 ft 447 kts 75°
2026-04-23 19:08 52.82028 5.24822 35399 ft 446 kts 75°
2026-04-23 19:08 52.83850 5.34578 35399 ft 445 kts 75°
2026-04-23 19:09 52.85662 5.44330 35399 ft 445 kts 75°
2026-04-23 19:09 52.87466 5.54092 35399 ft 446 kts 75°
2026-04-23 19:10 52.89265 5.63876 35399 ft 446 kts 75°
2026-04-23 19:10 52.91063 5.73706 35399 ft 445 kts 76°
2026-04-23 19:11 52.92843 5.83487 35399 ft 444 kts 75°
2026-04-23 19:11 52.94618 5.93297 35399 ft 445 kts 75°
2026-04-23 19:12 52.96392 6.03153 35399 ft 446 kts 75°
2026-04-23 19:12 52.98150 6.12970 35399 ft 445 kts 75°
2026-04-23 19:13 52.99896 6.22775 35373 ft 445 kts 75°
2026-04-23 19:13 53.01643 6.32648 35372 ft 444 kts 75°
2026-04-23 19:14 53.03368 6.42444 35367 ft 437 kts 75°
2026-04-23 19:14 53.04205 6.47200 35371 ft 423 kts 75°
2026-04-23 19:14 53.05003 6.51754 35373 ft 414 kts 75°
2026-04-23 19:15 53.06615 6.61021 35373 ft 420 kts 75°
2026-04-23 19:15 53.08236 6.70372 35372 ft 423 kts 76°
2026-04-23 19:16 53.09846 6.79710 35372 ft 421 kts 75°
2026-04-23 19:16 53.11449 6.89054 35372 ft 420 kts 75°
2026-04-23 19:17 53.13835 7.03049 35372 ft 420 kts 75°
2026-04-23 19:17 53.15413 7.12374 35347 ft 421 kts 75°
2026-04-23 19:18 53.16989 7.21731 35345 ft 420 kts 75°
2026-04-23 19:18 53.18562 7.31127 35345 ft 420 kts 75°
2026-04-23 19:19 53.20893 7.45135 35345 ft 419 kts 75°
2026-04-23 19:20 53.23211 7.59186 35345 ft 420 kts 75°
2026-04-23 19:20 53.23979 7.63868 35220 ft 422 kts 75°
2026-04-23 19:20 53.24747 7.68561 34971 ft 426 kts 76°
2026-04-23 19:21 53.25528 7.73351 34714 ft 425 kts 76°
2026-04-23 19:21 53.27062 7.82791 34215 ft 424 kts 75°
2026-04-23 19:21 53.27835 7.87567 33964 ft 424 kts 75°
2026-04-23 19:22 53.28598 7.92300 33715 ft 425 kts 75°
2026-04-23 19:22 53.29368 7.97081 33465 ft 425 kts 75°
2026-04-23 19:22 53.30891 8.06585 32969 ft 427 kts 75°
2026-04-23 19:23 53.31659 8.11402 32718 ft 428 kts 75°
2026-04-23 19:23 53.32428 8.16185 32436 ft 431 kts 74°
2026-04-23 19:23 53.33380 8.20982 31618 ft 441 kts 69°
2026-04-23 19:24 53.35653 8.30491 29782 ft 446 kts 68°
2026-04-23 19:24 53.36773 8.35348 28793 ft 443 kts 68°
2026-04-23 19:24 53.38869 8.44504 27684 ft 408 kts 68°
2026-04-23 19:25 53.40911 8.53229 26205 ft 396 kts 65°
2026-04-23 19:25 53.43201 8.61515 25038 ft 391 kts 64°
2026-04-23 19:26 53.45428 8.69716 23920 ft 386 kts 65°
2026-04-23 19:26 53.46530 8.73794 23369 ft 383 kts 65°
2026-04-23 19:27 53.48688 8.81809 22367 ft 375 kts 64°
2026-04-23 19:27 53.51856 8.93641 20760 ft 367 kts 64°
2026-04-23 19:28 53.54421 9.00881 19694 ft 358 kts 47°
2026-04-23 19:28 53.58152 9.06141 18674 ft 349 kts 33°
2026-04-23 19:29 53.60130 9.08487 18153 ft 347 kts 34°
2026-04-23 19:29 53.63996 9.13182 17168 ft 340 kts 33°
2026-04-23 19:30 53.67795 9.17752 16193 ft 334 kts 33°
2026-04-23 19:30 53.69655 9.19992 15721 ft 331 kts 33°
2026-04-23 19:30 53.73360 9.24456 14756 ft 325 kts 33°
2026-04-23 19:31 53.75173 9.26644 14312 ft 321 kts 33°
2026-04-23 19:31 53.76972 9.28819 13771 ft 320 kts 32°
2026-04-23 19:31 53.78763 9.30983 13317 ft 316 kts 32°
2026-04-23 19:31 53.80545 9.33141 13109 ft 304 kts 32°
2026-04-23 19:32 53.82131 9.35314 13015 ft 293 kts 43°
2026-04-23 19:32 53.83270 9.38133 12922 ft 286 kts 62°
2026-04-23 19:32 53.83775 9.41341 12679 ft 285 kts 81°
2026-04-23 19:32 53.83671 9.44676 12337 ft 289 kts 99°
2026-04-23 19:33 53.82903 9.47815 12275 ft 288 kts 119°
2026-04-23 19:33 53.81593 9.50412 12265 ft 298 kts 139°
2026-04-23 19:33 53.77739 9.52704 12264 ft 300 kts 181°
2026-04-23 19:34 53.75709 9.52170 12262 ft 295 kts 203°
2026-04-23 19:34 53.73907 9.50612 12268 ft 293 kts 213°
2026-04-23 19:34 53.70315 9.47270 12264 ft 295 kts 211°
2026-04-23 19:35 53.68501 9.45604 12264 ft 295 kts 211°
2026-04-23 19:35 53.66729 9.43965 12264 ft 295 kts 211°
2026-04-23 19:35 53.64939 9.42313 12263 ft 293 kts 211°
2026-04-23 19:35 53.63199 9.40666 12262 ft 281 kts 216°
2026-04-23 19:36 53.61869 9.38404 12268 ft 269 kts 248°
2026-04-23 19:36 53.61492 9.35388 12267 ft 259 kts 282°
2026-04-23 19:36 53.62121 9.32628 12120 ft 254 kts 305°
2026-04-23 19:36 53.63102 9.30221 11866 ft 249 kts 311°
2026-04-23 19:37 53.64254 9.28108 11611 ft 242 kts 322°
2026-04-23 19:37 53.65618 9.26496 11358 ft 236 kts 333°
2026-04-23 19:37 53.67119 9.25479 11102 ft 234 kts 351°
2026-04-23 19:37 53.68724 9.25837 10846 ft 238 kts 25°
2026-04-23 19:38 53.69984 9.27629 10622 ft 245 kts 44°
2026-04-23 19:38 53.70930 9.30069 10368 ft 250 kts 56°
2026-04-23 19:38 53.71730 9.32620 10268 ft 244 kts 55°
2026-04-23 19:38 53.72557 9.35159 10264 ft 247 kts 55°
2026-04-23 19:39 53.73378 9.37696 10264 ft 248 kts 55°
2026-04-23 19:39 53.74200 9.40255 10263 ft 248 kts 55°
2026-04-23 19:39 53.75026 9.42819 10129 ft 252 kts 55°
2026-04-23 19:39 53.75867 9.45444 9867 ft 252 kts 55°
2026-04-23 19:40 53.76696 9.48031 9598 ft 251 kts 55°
2026-04-23 19:40 53.77521 9.50610 9337 ft 248 kts 55°
2026-04-23 19:40 53.78339 9.53166 9071 ft 245 kts 54°
2026-04-23 19:40 53.79145 9.55688 8717 ft 246 kts 54°
2026-04-23 19:41 53.79948 9.58204 8391 ft 244 kts 54°
2026-04-23 19:41 53.80759 9.60746 8061 ft 243 kts 54°
2026-04-23 19:41 53.81559 9.63258 7735 ft 242 kts 54°
2026-04-23 19:41 53.82349 9.65741 7409 ft 242 kts 55°
2026-04-23 19:42 53.83131 9.68204 7245 ft 235 kts 55°
2026-04-23 19:42 53.83913 9.70664 7239 ft 238 kts 55°
2026-04-23 19:42 53.84701 9.73144 7237 ft 239 kts 55°
2026-04-23 19:42 53.85485 9.75620 7237 ft 239 kts 55°
2026-04-23 19:43 53.86262 9.78110 7235 ft 240 kts 58°
2026-04-23 19:43 53.86669 9.80917 7236 ft 253 kts 85°
2026-04-23 19:43 53.86470 9.83913 7213 ft 256 kts 92°
2026-04-23 19:43 53.86250 9.86879 6836 ft 257 kts 90°
2026-04-23 19:44 53.86048 9.89854 6532 ft 255 kts 90°
2026-04-23 19:44 53.85839 9.92834 6205 ft 254 kts 90°
2026-04-23 19:44 53.85627 9.95829 5880 ft 254 kts 90°
2026-04-23 19:44 53.85418 9.98774 5561 ft 253 kts 90°
2026-04-23 19:45 53.85209 10.01706 5244 ft 252 kts 90°
2026-04-23 19:45 53.84997 10.04665 4924 ft 251 kts 90°
2026-04-23 19:45 53.84789 10.07560 4623 ft 250 kts 90°
2026-04-23 19:45 53.84578 10.10485 4341 ft 248 kts 90°
2026-04-23 19:46 53.84317 10.13343 4052 ft 248 kts 96°
2026-04-23 19:46 53.83959 10.16162 4002 ft 243 kts 94°
2026-04-23 19:46 53.83670 10.19008 3993 ft 246 kts 93°
2026-04-23 19:46 53.83522 10.21868 3995 ft 242 kts 83°
2026-04-23 19:47 53.83520 10.24726 3993 ft 242 kts 83°
2026-04-23 19:47 53.83521 10.27581 3993 ft 242 kts 83°
2026-04-23 19:47 53.83306 10.30414 3908 ft 247 kts 106°
2026-04-23 19:47 53.82368 10.32832 3541 ft 254 kts 139°
2026-04-23 19:48 53.80817 10.34124 3469 ft 246 kts 174°
2026-04-23 19:48 53.79149 10.33916 3480 ft 243 kts 206°
2026-04-23 19:48 53.77805 10.32346 3478 ft 229 kts 239°
2026-04-23 19:48 53.77065 10.30059 3487 ft 223 kts 251°
2026-04-23 19:49 53.76386 10.27670 3477 ft 223 kts 249°
2026-04-23 19:49 53.75634 10.25372 3476 ft 225 kts 245°
2026-04-23 19:49 53.74791 10.23211 3439 ft 218 kts 242°
2026-04-23 19:49 53.73944 10.21161 3273 ft 209 kts 242°
2026-04-23 19:50 53.73053 10.19237 3001 ft 208 kts 238°
2026-04-23 19:50 53.72138 10.17353 2723 ft 205 kts 238°
2026-04-23 19:50 53.71243 10.15525 2446 ft 202 kts 237°
2026-04-23 19:50 53.70350 10.13704 2195 ft 194 kts 237°
2026-04-23 19:51 53.69517 10.12004 1910 ft 185 kts 237°
2026-04-23 19:51 53.68711 10.10364 1654 ft 175 kts 237°
2026-04-23 19:51 53.67983 10.08882 1428 ft 156 kts 237°
2026-04-23 19:51 53.67317 10.07525 1254 ft 147 kts 237°
2026-04-23 19:52 53.66668 10.06204 1038 ft 147 kts 237°
2026-04-23 19:52 53.66021 10.04887 841 ft 146 kts 236°
2026-04-23 19:52 53.65372 10.03568 627 ft 147 kts 235°
2026-04-23 19:52 53.64704 10.02260 432 ft 147 kts 235°
2026-04-23 19:53 53.64062 10.00935 246 ft 145 kts 234°
2026-04-23 19:53 53.63436 9.99651 63 ft 134 kts 234°
2026-04-23 19:53 53.62962 9.98664 62 ft 72 kts 228°
2026-04-23 19:53 53.62751 9.98474 62 ft 13 kts 182°
2026-04-23 19:54 53.62726 9.98480 62 ft 0 kts 161°
2026-04-23 19:55 53.62717 9.98488 62 ft 2 kts 148°
2026-04-23 19:55 53.62703 9.98518 62 ft 4 kts 114°
2026-04-23 19:55 53.62706 9.98571 62 ft 5 kts 66°
2026-04-23 19:55 53.62731 9.98630 62 ft 6 kts 52°
2026-04-23 19:56 53.62764 9.98700 62 ft 8 kts 51°
2026-04-23 19:56 53.62806 9.98789 62 ft 10 kts 50°
2026-04-23 19:56 53.62859 9.98894 62 ft 12 kts 50°
2026-04-23 19:56 53.62919 9.99016 62 ft 14 kts 50°
2026-04-23 19:57 53.62981 9.99141 62 ft 12 kts 50°
2026-04-23 19:57 53.63031 9.99250 62 ft 10 kts 53°
2026-04-23 19:57 53.63073 9.99343 62 ft 9 kts 53°
2026-04-23 19:57 53.63115 9.99437 62 ft 10 kts 53°
2026-04-23 19:58 53.63159 9.99534 62 ft 10 kts 52°
2026-04-23 19:58 53.63205 9.99635 62 ft 11 kts 52°
2026-04-23 19:58 53.63213 9.99753 62 ft 11 kts 124°
2026-04-23 19:58 53.63139 9.99834 62 ft 13 kts 153°
2026-04-23 19:59 53.63044 9.99914 62 ft 16 kts 153°
2026-04-23 19:59 53.62959 10.00002 62 ft 10 kts 123°
2026-04-23 19:59 53.62986 10.00093 62 ft 10 kts 32°
2026-04-23 19:59 53.63005 10.00166 62 ft 8 kts 110°
2026-04-23 20:00 53.62979 10.00247 62 ft 4 kts 121°
2026-04-23 20:00 53.62971 10.00270 62 ft 0 kts 120°